FW8377 Weather Reports


time (UTC)temp
F
wind
direction
speed
knots
gust
knots
rain 1hr
in
rain 24hr
in
rain mn
in
humidity
%
barometer
mb
20260906075544 78 243 3.5 6.1 0.00 0.00 0.00 71 1022.9
20260906074542 78 295 1.7 5.2 0.00 0.00 0.00 72 1023.0
20260906073601 76 248 1.7 6.1 0.00 0.00 0.00 76 1023.0
20260906072540 75 188 2.6 7.0 0.00 0.00 0.00 79 1022.9
20260906071559 74 191 3.5 6.1 0.00 0.00 0.00 80 1022.9
20260906070537 74 181 3.5 8.7 0.00 0.00 0.00 80 1022.9
20260906065557 74 203 3.5 7.8 0.00 0.00 0.00 80 1022.8
20260906064536 74 221 6.1 7.8 0.00 0.00 0.00 75 1022.8
20260906063534 73 178 4.3 7.0 0.00 0.00 0.00 77 1022.7
20260906062553 73 176 2.6 7.8 0.00 0.00 0.00 78 1022.8
20260906061532 72 187 3.5 7.0 0.00 0.00 0.00 82 1022.7
20260906060530 71 183 2.6 4.3 0.00 0.00 0.00 84 1022.7
20260906055529 70 176 2.6 4.3 0.00 0.00 0.00 86 1022.7
20260906054528 70 177 3.5 5.2 0.00 0.00 0.00 86 1022.5
20260906053527 69 170 2.6 5.2 0.00 0.00 0.00 88 1022.5
20260906052525 69 169 1.7 3.5 0.00 0.00 0.00 90 1022.6
20260906051545 68 173 2.6 5.2 0.00 0.00 0.00 92 1022.4
20260906050524 68 174 1.7 4.3 0.00 0.00 0.00 92 1022.5
20260906045522 68 175 1.7 4.3 0.00 0.00 0.00 91 1022.4
20260906044522 69 165 1.7 4.3 0.00 0.00 0.00 90 1022.3
20260906043520 69 165 1.7 5.2 0.00 0.00 0.00 88 1022.3
20260906042519 70 163 0.9 3.5 0.00 0.00 0.00 87 1022.2
20260906041518 69 128 0.9 1.7 0.00 0.00 0.00 89 1022.2
20260906040517 69 152 0.9 2.6 0.00 0.00 0.00 90 1022.1
20260906035515 69 163 1.7 4.3 0.00 0.00 0.00 92 1022.1
20260906034614 69 151 0.9 3.5 0.00 0.00 0.00 92 1022.1
20260906033614 68 157 1.7 3.5 0.00 0.00 0.00 92 1022.0
20260906032632 68 162 1.7 3.5 0.00 0.00 0.00 92 1022.0
20260906031611 68 172 1.7 3.5 0.00 0.00 0.00 92 1022.1
20260906030610 69 169 1.7 5.2 0.00 0.00 0.00 92 1022.0
20260906025609 69 183 2.6 4.3 0.00 0.00 0.00 91 1022.0
20260906024608 69 171 2.6 3.5 0.00 0.00 0.00 91 1022.2
20260906023607 69 172 2.6 3.5 0.00 0.00 0.00 91 1022.2
20260906022625 70 177 2.6 4.3 0.00 0.00 0.00 90 1022.2
20260906021604 70 156 1.7 3.5 0.00 0.00 0.00 90 1022.0
20260906020603 69 156 1.7 3.5 0.00 0.00 0.00 90 1022.0
20260906015602 69 168 1.7 5.2 0.00 0.00 0.00 90 1022.2
20260906014621 70 169 2.6 5.2 0.00 0.00 0.00 89 1022.2
20260906013600 70 172 2.6 4.3 0.00 0.00 0.00 87 1022.1
20260906012558 71 167 1.7 3.5 0.00 0.00 0.00 86 1022.2
20260906011637 71 127 1.7 2.6 0.00 0.00 0.00 85 1022.3
20260906010556 71 169 1.7 4.3 0.00 0.00 0.00 84 1022.2
20260906005554 72 174 1.7 3.5 0.00 0.00 0.00 84 1022.3
20260906004553 72 172 1.7 3.5 0.00 0.00 0.00 84 1022.3
20260906003552 72 176 2.6 4.3 0.00 0.00 0.00 84 1022.2
20260906002551 72 161 1.7 3.5 0.00 0.00 0.00 84 1022.1
20260906001550 72 174 1.7 3.5 0.00 0.00 0.00 84 1022.3
20260906000549 72 163 2.6 4.3 0.00 0.00 0.00 84 1022.3
20260905235547 72 168 2.6 4.3 0.00 0.00 0.00 84 1022.4
20260905234547 72 174 2.6 4.3 0.00 0.00 0.00 84 1022.5
20260905233545 72 163 1.7 4.3 0.00 0.00 0.00 85 1022.5
20260905232544 73 158 1.7 5.2 0.00 0.00 0.00 86 1022.4
20260905231543 72 143 0.9 3.5 0.00 0.00 0.00 88 1022.5
20260905230541 72 159 1.7 4.3 0.00 0.00 0.00 88 1022.4
20260905225540 73 173 2.6 3.5 0.00 0.00 0.00 87 1022.5
20260905224538 74 168 2.6 3.5 0.00 0.00 0.00 85 1022.4
20260905223538 74 132 0.9 2.6 0.00 0.00 0.00 85 1022.3
20260905222536 74 62 0.9 1.7 0.00 0.00 0.00 85 1022.4
20260905221535 74 28 0.0 1.7 0.00 0.00 0.00 85 1022.5
20260905220534 75 141 0.0 1.7 0.00 0.00 0.00 85 1022.5
20260905215612 75 179 0.9 2.6 0.00 0.00 0.00 84 1022.3
20260905214531 75 63 0.0 1.7 0.00 0.00 0.00 84 1022.4
20260905213550 75 69 0.9 2.6 0.00 0.00 0.00 84 1022.3
20260905212528 75 11 0.0 1.7 0.00 0.00 0.00 83 1022.2
20260905211547 75 0.0 1.7 0.00 0.00 0.00 83 1022.1
20260905210527 75 9 0.9 1.7 0.00 0.00 0.00 82 1022.2
20260905205525 76 335 1.7 2.6 0.00 0.00 0.00 82 1022.2
20260905204524 76 333 0.9 3.5 0.00 0.00 0.00 82 1022.1
20260905203523 76 328 0.9 2.6 0.00 0.00 0.00 82 1022.1
20260905202542 77 336 2.6 3.5 0.00 0.00 0.00 82 1022.2
20260905201520 77 358 1.7 3.5 0.00 0.00 0.00 82 1022.0
20260905200519 77 349 1.7 4.3 0.00 0.00 0.00 82 1022.0
20260905195518 78 349 3.5 4.3 0.00 0.00 0.00 81 1021.9
20260905194517 78 4 2.6 3.5 0.00 0.00 0.00 81 1022.1
20260905193516 78 14 2.6 3.5 0.00 0.00 0.00 80 1022.0
20260905192615 78 19 2.6 4.3 0.00 0.00 0.00 80 1021.8
20260905191633 79 10 2.6 5.2 0.00 0.00 0.00 79 1021.8
20260905190612 79 18 3.5 6.1 0.00 0.00 0.00 77 1021.6
20260905185611 80 37 4.3 7.8 0.00 0.00 0.00 75 1021.5
20260905184609 80 32 6.1 8.7 0.00 0.00 0.00 74 1021.4
20260905183609 80 36 6.1 8.7 0.00 0.00 0.00 71 1021.3
20260905182607 81 47 5.2 8.7 0.00 0.00 0.00 70 1021.1
20260905181606 82 40 5.2 10.4 0.00 0.00 0.00 66 1021.1
20260905180605 82 50 6.1 10.4 0.00 0.00 0.00 63 1020.9
20260905175603 83 40 6.1 9.6 0.00 0.00 0.00 57 1020.8
20260905174602 83 45 5.2 10.4 0.00 0.00 0.00 55 1020.6
20260905173600 84 37 5.2 12.2 0.00 0.00 0.00 54 1020.7
20260905172558 85 27 7.0 13.0 0.00 0.00 0.00 51 1020.4
20260905171601 86 28 7.0 12.2 0.00 0.00 0.00 49 1020.4
20260905170555 87 33 6.1 12.2 0.00 0.00 0.00 47 1020.5
20260905165554 87 27 7.8 13.0 0.00 0.00 0.00 47 1020.2
20260905164553 88 21 10.4 13.9 0.00 0.00 0.00 45 1020.2
20260905163612 89 29 7.8 11.3 0.00 0.00 0.00 41 1020.1
20260905162550 89 40 6.1 12.2 0.00 0.00 0.00 40 1020.3
20260905161549 90 29 6.1 11.3 0.00 0.00 0.00 39 1020.3
20260905160547 90 26 7.0 16.5 0.00 0.00 0.00 39 1020.2
20260905155546 90 31 6.1 11.3 0.00 0.00 0.00 40 1020.1
20260905154545 91 27 7.8 15.6 0.00 0.00 0.00 40 1020.1
20260905153544 91 28 13.0 19.1 0.00 0.00 0.00 40 1020.0
20260905152543 92 25 9.6 14.8 0.00 0.00 0.00 40 1019.9
20260905151542 92 43 7.8 13.0 0.00 0.00 0.00 38 1019.9
20260905150542 92 29 9.6 15.6 0.00 0.00 0.00 40 1020.1
20260905145539 92 26 9.6 16.5 0.00 0.00 0.00 39 1020.1
20260905144538 92 33 9.6 15.6 0.00 0.00 0.00 36 1020.1
20260905143537 92 34 7.8 16.5 0.00 0.00 0.00 37 1019.9
20260905142536 93 40 8.7 14.8 0.00 0.00 0.00 36 1020.1
20260905141535 93 25 8.7 15.6 0.00 0.00 0.00 36 1020.2
20260905140534 93 15 9.6 22.6 0.00 0.00 0.00 35 1020.0
20260905135532 93 17 8.7 18.2 0.00 0.00 0.00 35 1020.3
20260905134532 94 38 7.8 20.0 0.00 0.00 0.00 32 1020.3
20260905133530 94 18 7.0 14.8 0.00 0.00 0.00 32 1020.2
20260905132529 94 29 7.8 17.4 0.00 0.00 0.00 30 1020.2
20260905131548 95 26 9.6 16.5 0.00 0.00 0.00 28 1020.3
20260905130547 95 31 7.8 13.0 0.00 0.00 0.00 28 1020.5
20260905125526 94 8 8.7 14.8 0.00 0.00 0.00 29 1020.5
20260905124525 94 347 7.0 13.0 0.00 0.00 0.00 31 1020.5
20260905123523 94 27 6.1 13.0 0.00 0.00 0.00 31 1020.6
20260905122542 94 30 7.8 13.9 0.00 0.00 0.00 30 1020.8
20260905121520 93 14 7.0 15.6 0.00 0.00 0.00 29 1020.8
20260905120519 93 354 6.1 11.3 0.00 0.00 0.00 30 1020.7
20260905115538 93 329 7.0 10.4 0.00 0.00 0.00 27 1020.8
20260905114517 92 319 5.2 13.0 0.00 0.00 0.00 25 1021.0
20260905113516 93 339 5.2 11.3 0.00 0.00 0.00 26 1021.2
20260905112615 92 341 6.1 9.6 0.00 0.00 0.00 27 1021.2
20260905111613 92 347 6.1 9.6 0.00 0.00 0.00 25 1021.2
20260905110612 92 23 7.8 16.5 0.00 0.00 0.00 26 1021.2
20260905105611 91 5 5.2 9.6 0.00 0.00 0.00 28 1021.2
20260905104630 91 28 7.0 11.3 0.00 0.00 0.00 29 1021.2
20260905103609 90 9 6.1 12.2 0.00 0.00 0.00 28 1021.4
20260905102607 90 11 7.8 13.9 0.00 0.00 0.00 30 1021.3
20260905101606 89 358 4.3 8.7 0.00 0.00 0.00 33 1021.4
20260905100604 89 354 5.2 8.7 0.00 0.00 0.00 34 1021.5
20260905095603 88 18 6.1 9.6 0.00 0.00 0.00 36 1021.6
20260905094602 88 16 5.2 9.6 0.00 0.00 0.00 35 1021.7
20260905093601 88 349 5.2 10.4 0.00 0.00 0.00 36 1021.8
20260905092600 87 356 3.5 8.7 0.00 0.00 0.00 36 1021.8
20260905091639 85 337 3.5 7.8 0.00 0.00 0.00 40 1021.9
20260905090557 85 18 3.5 6.1 0.00 0.00 0.00 41 1021.8
20260905085556 84 7 3.5 5.2 0.00 0.00 0.00 42 1021.7
20260905084555 84 4 3.5 7.8 0.00 0.00 0.00 43 1021.6
20260905083634 85 6 2.6 6.1 0.00 0.00 0.00 42 1021.8
20260905082553 83 321 2.6 4.3 0.00 0.00 0.00 43 1021.7
20260905081632 81 268 0.9 3.5 0.00 0.00 0.00 46 1021.7
20260905080551 78 56 1.7 4.3 0.00 0.00 0.00 50 1021.6